CZ-2F R/B

Last updated on June 20, 2021, 12:02 a.m. UTC

1 46390U 20063B   21170.43001346  .00430076  11735-3  25898-3 0  9990
2 46390  50.1931 306.8938 0006320 308.4968  51.5461 16.17657063 45811

Satellite is not in orbit.